Location: ?p Thanh B�nh
(16.5833°N, 107.5333°E)
Time: 08:44:24
(UTC+00:00)

Cosmos 1697 Rocket - Pass Details

Date: 29 October 2020
Orbit: 831 x 845 km, 71.0° (Epoch: 23 November)

Event Time Altitude Azimuth Distance (km) Brightness Sun altitude
Exits shadow 21:01:21 - 356° (N) 3,399 5.7 -25.6°
Rises 21:01:22 0° 356° (N) 3,393 5.7 -25.6°
Reaches altitude 10° 21:04:00 10° 5° (N) 2,458 5.1 -25.0°
Maximum altitude 21:09:10 36° 71° (ENE) 1,299 4.1 -23.8°
Drops below altitude 10° 21:14:19 10° 137° (SE) 2,456 5.8 -22.6°
Sets 21:16:56 0° 145° (SE) 3,389 6.5 -21.9°
